Location: Shepherdstown, WV
(39.4326°N, 77.8042°W)
Time: 18:43:45
(UTC-04:00)

Vanguard 3 - Pass Details

Date: 28 July 2021
Orbit: 510 x 3260 km, 33.3° (Epoch: 18 September)

Event Time Altitude Azimuth Distance (km) Brightness Sun altitude
Rises 02:37:06 0° 283° (WNW) 7,185 11.9 -28.8°
Reaches altitude 10° 02:43:02 10° 275° (W) 5,992 11.4 -28.3°
Enters shadow 02:53:40 28° 243° (WSW) 4,102 10.2 -27.5°
